Starlink 4168

operational
NORAD ID: 52845 Int'l Des: 2022-062 Owner: SPXS Country: US Constellation: starlink
LEOCIRCULAR

关于 Starlink 4168

正在加载描述...

实时位置

正在加载3D地球...

即将过境

高度历史

Altitude vs Time

uPlot chart will show altitude changes over time

两行轨道根数

1 52845U 22062R 25351.32171039 .00000128 00000-0 26155-4 0 9992
2 52845 53.2165 43.9520 0001139 92.9352 267.1771 15.08839388193350
Epoch: Dec 17, 2025 • Age: 5 hours

当前状态

高度 542.1 km
速度 7.60 km/s
星下点 36.49°N, 159.48°E
发射日期 Jun 17, 2022
运行时间 3.4 years
类型 internet

技术详情

分类 Payload
质量 297.00 kg
干质量 275.00 kg
总质量 297.00 kg
长度 0.20 m
直径 2.80 m
跨度 9.00 m
形状 Box + pan
制造商 SPXS
平台类型 Starlink
阶段状态 In Orbit
所有者/国家 SPXS/US

大型星座

Loading constellations...